• în România
  • Lista ţărilor
  • Pe 7 zile
  • Temperatura apei
  • Hartă satelitară
  • Meteo pe hartă
  • Widget-uri
  • user-avatar
    Intrare

    Meteo pe oră la Port-au-Princ

    Astăzi, 17 August, Vineri

    Timp Temperatura Precipitaţii Vânt Presiune Umiditate
    00:00 +26°C° 0 mm 1 m/s 738 mmHg 77%
    01:00 +26°C° 0 mm 1 m/s 738 mmHg 78%
    02:00 +26°C° 0 mm 1 m/s 738 mmHg 78%
    03:00 +26°C° 0 mm 1 m/s 738 mmHg 78%
    04:00 +26°C° 0 mm 1 m/s 738 mmHg 78%
    05:00 +26°C° 0 mm 2 m/s 738 mmHg 75%
    06:00 +27°C° 0 mm 2 m/s 738 mmHg 72%
    07:00 +28°C° 0 mm 3 m/s 739 mmHg 67%
    08:00 +30°C° 0 mm 3 m/s 739 mmHg 61%
    09:00 +33°C° 0 mm 3 m/s 739 mmHg 55%
    10:00 +35°C° 0 mm 3 m/s 739 mmHg 49%
    11:00 +35°C° 0,1 mm 3 m/s 739 mmHg 48%
    12:00 +36°C° 0,1 mm 3 m/s 738 mmHg 46%
    13:00 +36°C° 0,1 mm 3 m/s 738 mmHg 45%
    14:00 +35°C° 0,6 mm 3 m/s 738 mmHg 49%
    15:00 +34°C° 0,6 mm 3 m/s 737 mmHg 53%
    16:00 +33°C° 0,6 mm 3 m/s 737 mmHg 57%
    17:00 +31°C° 0,3 mm 2 m/s 737 mmHg 62%
    18:00 +30°C° 0,3 mm 2 m/s 737 mmHg 67%
    19:00 +29°C° 0,3 mm 1 m/s 737 mmHg 71%
    20:00 +28°C° 0,2 mm 1 m/s 738 mmHg 73%
    21:00 +27°C° 0,2 mm 1 m/s 738 mmHg 75%
    22:00 +27°C° 0,2 mm 1 m/s 738 mmHg 77%
    23:00 +27°C° 0,2 mm 2 m/s 738 mmHg 78%

    Mâine, 18 August, Sâmbătă

    Timp Temperatura Precipitaţii Vânt Presiune Umiditate
    00:00 +26°C° 0,2 mm 2 m/s 738 mmHg 80%
    01:00 +26°C° 0,2 mm 2 m/s 737 mmHg 81%
    02:00 +26°C° 0 mm 2 m/s 737 mmHg 82%
    03:00 +25°C° 0 mm 2 m/s 737 mmHg 83%
    04:00 +25°C° 0 mm 2 m/s 737 mmHg 84%
    05:00 +26°C° 0 mm 2 m/s 737 mmHg 81%
    06:00 +27°C° 0 mm 2 m/s 737 mmHg 78%
    07:00 +27°C° 0 mm 2 m/s 737 mmHg 74%
    08:00 +29°C° 0 mm 2 m/s 738 mmHg 66%
    09:00 +32°C° 0 mm 2 m/s 738 mmHg 58%
    10:00 +35°C° 0 mm 2 m/s 738 mmHg 49%
    11:00 +36°C° 0 mm 2 m/s 738 mmHg 47%
    12:00 +36°C° 0 mm 3 m/s 737 mmHg 44%
    13:00 +37°C° 0 mm 3 m/s 737 mmHg 42%
    14:00 +36°C° 0,5 mm 3 m/s 736 mmHg 47%
    15:00 +35°C° 0,5 mm 3 m/s 736 mmHg 51%
    16:00 +33°C° 0,5 mm 3 m/s 735 mmHg 56%
    17:00 +31°C° 1,1 mm 3 m/s 736 mmHg 62%
    18:00 +30°C° 1,1 mm 2 m/s 736 mmHg 69%
    19:00 +28°C° 1,1 mm 2 m/s 736 mmHg 75%
    20:00 +28°C° 0,4 mm 2 m/s 736 mmHg 77%
    21:00 +27°C° 0,4 mm 2 m/s 737 mmHg 78%
    22:00 +27°C° 0,4 mm 2 m/s 737 mmHg 80%
    23:00 +27°C° 0,1 mm 2 m/s 737 mmHg 80%

    Poimâine, 19 August, Duminică

    Timp Temperatura Precipitaţii Vânt Presiune Umiditate
    00:00 +26°C° 0,1 mm 2 m/s 736 mmHg 81%
    01:00 +26°C° 0,1 mm 2 m/s 736 mmHg 81%
    02:00 +26°C° 0 mm 2 m/s 736 mmHg 81%
    03:00 +25°C° 0 mm 2 m/s 736 mmHg 81%
    04:00 +25°C° 0 mm 2 m/s 735 mmHg 81%
    05:00 +26°C° 0 mm 2 m/s 736 mmHg 78%
    06:00 +26°C° 0 mm 2 m/s 736 mmHg 74%
    07:00 +27°C° 0 mm 3 m/s 737 mmHg 71%
    08:00 +29°C° 0 mm 2 m/s 737 mmHg 63%
    09:00 +31°C° 0 mm 2 m/s 738 mmHg 54%
    10:00 +34°C° 0 mm 2 m/s 738 mmHg 46%
    11:00 +35°C° 0 mm 2 m/s 738 mmHg 45%
    12:00 +35°C° 0 mm 3 m/s 737 mmHg 45%
    13:00 +36°C° 0 mm 3 m/s 737 mmHg 45%
    14:00 +35°C° 0,1 mm 3 m/s 737 mmHg 48%
    15:00 +34°C° 0,1 mm 2 m/s 736 mmHg 52%
    16:00 +32°C° 0,1 mm 2 m/s 735 mmHg 55%
    17:00 +31°C° 0 mm 2 m/s 736 mmHg 60%
    18:00 +30°C° 0 mm 2 m/s 736 mmHg 65%
    19:00 +28°C° 0 mm 2 m/s 737 mmHg 69%
    20:00 +28°C° 0 mm 2 m/s 737 mmHg 71%
    21:00 +27°C° 0 mm 1 m/s 737 mmHg 73%
    22:00 +27°C° 0 mm 1 m/s 738 mmHg 75%
    23:00 +26°C° 0 mm 2 m/s 737 mmHg 76%

    20 August, Luni

    Timp Temperatura Precipitaţii Vânt Presiune Umiditate
    00:00 +26°C° 0 mm 2 m/s 737 mmHg 78%
    01:00 +26°C° 0 mm 2 m/s 737 mmHg 79%
    02:00 +25°C° 0 mm 2 m/s 737 mmHg 80%
    03:00 +25°C° 0 mm 2 m/s 737 mmHg 80%
    04:00 +25°C° 0 mm 2 m/s 736 mmHg 80%
    05:00 +26°C° 0 mm 2 m/s 737 mmHg 74%
    06:00 +26°C° 0 mm 2 m/s 737 mmHg 68%
    07:00 +27°C° 0 mm 2 m/s 738 mmHg 62%
    08:00 +29°C° 0 mm 2 m/s 738 mmHg 55%
    09:00 +32°C° 0 mm 2 m/s 738 mmHg 48%
    10:00 +35°C° 0 mm 2 m/s 738 mmHg 41%
    11:00 +35°C° 0 mm 2 m/s 738 mmHg 41%
    12:00 +36°C° 0 mm 3 m/s 738 mmHg 40%
    13:00 +36°C° 0 mm 3 m/s 737 mmHg 40%
    14:00 +36°C° 0 mm 3 m/s 737 mmHg 44%
    15:00 +35°C° 0 mm 3 m/s 737 mmHg 47%
    16:00 +34°C° 0 mm 3 m/s 736 mmHg 50%
    17:00 +33°C° 0,2 mm 3 m/s 737 mmHg 56%
    18:00 +30°C° 0,2 mm 2 m/s 737 mmHg 63%
    19:00 +29°C° 0,2 mm 2 m/s 737 mmHg 69%
    20:00 +28°C° 0 mm 2 m/s 738 mmHg 71%
    21:00 +28°C° 0 mm 2 m/s 738 mmHg 73%
    22:00 +27°C° 0 mm 2 m/s 738 mmHg 74%
    23:00 +27°C° 0 mm 2 m/s 738 mmHg 75%

    21 August, Marţi

    Timp Temperatura Precipitaţii Vânt Presiune Umiditate
    00:00 +26°C° 0 mm 2 m/s 737 mmHg 77%
    01:00 +26°C° 0 mm 2 m/s 737 mmHg 78%
    02:00 +26°C° 0 mm 2 m/s 737 mmHg 79%
    03:00 +25°C° 0 mm 2 m/s 737 mmHg 79%
    04:00 +25°C° 0 mm 2 m/s 737 mmHg 80%
    05:00 +26°C° 0 mm 2 m/s 737 mmHg 77%
    06:00 +27°C° 0 mm 2 m/s 737 mmHg 74%
    07:00 +27°C° 0 mm 2 m/s 738 mmHg 71%
    08:00 +30°C° 0 mm 2 m/s 738 mmHg 63%
    09:00 +32°C° 0 mm 2 m/s 738 mmHg 56%
    10:00 +35°C° 0 mm 2 m/s 738 mmHg 48%
    11:00 +35°C° 0 mm 2 m/s 738 mmHg 46%
    12:00 +36°C° 0 mm 2 m/s 737 mmHg 44%
    13:00 +36°C° 0 mm 3 m/s 737 mmHg 42%
    14:00 +35°C° 0 mm 3 m/s 737 mmHg 45%
    15:00 +34°C° 0 mm 3 m/s 736 mmHg 49%
    16:00 +34°C° 0 mm 3 m/s 736 mmHg 52%
    17:00 +31°C° 0,3 mm 2 m/s 736 mmHg 58%
    18:00 +30°C° 0,3 mm 2 m/s 737 mmHg 63%
    19:00 +29°C° 0,3 mm 2 m/s 737 mmHg 69%
    20:00 +28°C° 0,3 mm 2 m/s 737 mmHg 71%
    21:00 +27°C° 0,3 mm 2 m/s 737 mmHg 73%
    22:00 +27°C° 0,3 mm 2 m/s 738 mmHg 76%
    23:00 +26°C° 0,1 mm 2 m/s 737 mmHg 77%

    22 August, Miercuri

    Timp Temperatura Precipitaţii Vânt Presiune Umiditate
    00:00 +26°C° 0,1 mm 2 m/s 737 mmHg 78%
    01:00 +26°C° 0,1 mm 2 m/s 737 mmHg 79%
    02:00 +25°C° 0 mm 2 m/s 737 mmHg 79%
    03:00 +25°C° 0 mm 2 m/s 737 mmHg 79%
    04:00 +25°C° 0 mm 2 m/s 737 mmHg 79%
    05:00 +26°C° 0 mm 2 m/s 737 mmHg 76%
    06:00 +27°C° 0 mm 2 m/s 737 mmHg 72%
    07:00 +27°C° 0 mm 3 m/s 738 mmHg 68%
    08:00 +29°C° 0 mm 3 m/s 738 mmHg 61%
    09:00 +31°C° 0 mm 3 m/s 738 mmHg 54%
    10:00 +34°C° 0 mm 3 m/s 738 mmHg 47%
    11:00 +35°C° 0 mm 3 m/s 738 mmHg 46%
    12:00 +36°C° 0 mm 3 m/s 737 mmHg 44%
    13:00 +36°C° 0 mm 4 m/s 737 mmHg 42%
    14:00 +36°C° 0 mm 3 m/s 736 mmHg 44%
    15:00 +35°C° 0 mm 3 m/s 736 mmHg 46%
    16:00 +34°C° 0 mm 3 m/s 736 mmHg 48%
    17:00 +33°C° 0,1 mm 3 m/s 736 mmHg 54%
    18:00 +30°C° 0,1 mm 2 m/s 736 mmHg 61%
    19:00 +28°C° 0,1 mm 2 m/s 737 mmHg 68%
    20:00 +28°C° 0 mm 2 m/s 737 mmHg 70%
    21:00 +27°C° 0 mm 2 m/s 737 mmHg 71%
    22:00 +26°C° 0 mm 2 m/s 737 mmHg 73%
    23:00 +26°C° 0 mm 2 m/s 737 mmHg 74%
    Arată mai mult